User: anonymous   Login
Location: Wildcat Hills Observatory
(41.6350°N, 103.6812°W)
Time: 13:17:06
(UTC-07:00)
Language:

Cosmos 1634 Rocket - Orbit

View from above orbital plane
View from above orbital plane
View from above satellite
View from above satellite

Ground track
Ground track

The orbit data is extracted from the following two-line orbital elements,

1 15598U 85022B   17352.07193889 -.00000043  00000-0 -59146-4 0  9996
2 15598  82.9359 330.4175 0021229 317.9221  85.7181 13.76555390645762
Epoch (UTC): 18 December 2017 01:43:35
Eccentricity: 0.0021229
inclination: 82.9359°
perigee height: 960 km
apogee height: 992 km
right ascension of ascending node: 330.4175°
argument of perigee: 317.9221°
revolutions per day: 13.76555390
mean anomaly at epoch: 85.7181°
orbit number at epoch: 64576

The dashed part of the orbit path shows where the satellite is in the earth's shadow,  

DLR